Regional Weather Roundup
Issued by NWS

Home | Current Version | Previous Version | Text Only | Print | Product List | Glossary On
Versions: 1 2 3 4 5 6 7 8 9 10 11 12 13 14 15 16 17 18 19 20 21 22 23 24 25 26 27 28 29 30 31 32 33 34 35 36 37 38 39 40 41 42 43 44 45 46 47 48 49 50
000
ASUS43 KBIS 041810
RWRND

NORTH DAKOTA REGIONAL WEATHER ROUNDUP
NATIONAL WEATHER SERVICE BISMARCK ND
1200 PM CST SUN DEC 04 2016

NOTE: "FAIR" INDICATES FEW OR NO CLOUDS BELOW 12,000 FEET WITH NO
SIGNIFICANT WEATHER AND/OR OBSTRUCTIONS TO VISIBILITY.


NDZ001>003-009>011-017-041900-
NORTHWEST NORTH DAKOTA

CITY           SKY/WX    TMP DP  RH WIND       PRES   REMARKS
WILLISTON      SUNNY     27  21  78 SW10      29.72F WCI  17
6HR MIN TEMP:  18; 6HR MAX TEMP:  27;

MINOT          CLOUDY    30  27  88 W15       29.69F WCI  19
MINOT AFB      CLOUDY    29  26  87 NW16      29.68F WCI  18
$$

NDZ018>021-031>035-040>046-041900-
SOUTHWEST NORTH DAKOTA

CITY           SKY/WX    TMP DP  RH WIND       PRES   REMARKS
BISMARCK       SUNNY     32  24  72 W14       29.75F
6HR MIN TEMP:  30; 6HR MAX TEMP:  33; 6HR PCP: TRACE;

DICKINSON      SUNNY     29  20  69 W16       29.71F WCI  17
GARRISON         N/A     28  22  78 W10       29.71F WCI  19
6HR MIN TEMP:  28; 6HR MAX TEMP:  31;

HETTINGER ARPT SUNNY     31  22  69 W7        29.77F
$$

NDZ004>008-012>016-024-026-027-054-041900-
NORTHEAST NORTH DAKOTA

CITY           SKY/WX    TMP DP  RH WIND       PRES   REMARKS
GRAND FORKS    CLOUDY    31  26  82 W15       29.68F
GRND FRKS AFB  CLOUDY    30  26  85 W10       29.67F
DEVILS LAKE    LGT SNOW  28  25  88 W24       29.66F FOG     WCI  14
$$

NDZ022-023-025-028>030-036>039-047>053-041900-
SOUTHEAST NORTH DAKOTA

CITY           SKY/WX    TMP DP  RH WIND       PRES   REMARKS
FARGO          CLOUDY    34  32  92 SW8       29.70F
6HR MIN TEMP:  33; 6HR MAX TEMP:  34; 6HR PCP:  0.11;

JAMESTOWN      CLOUDY    33  28  81 W14G22    29.70F
$$




USA.gov is the U.S. government's official web portal to all federal, state and local government web resources and services.